STARLINK-30389, 57783

Orbit data source: Space-Track

STARLINK-30389, 57783 is a payload satellite in LEO that was launched on Mon, 04 Sep 2023 UTC via an FALCON 9 launch vehicle from the Air Force Eastern Test Range (AFETR). Payload-class satellites include a variety of spacecraft equipped with specific instruments for various scientific and technological missions. These include communications satellites like Starlink; space stations such as the ISS; scientific satellites like the Hubble; Earth observation satellites from companies like Planet Labs, Umbra, and HawkEye 360; GPS; miniature CubeSats for education and research; and military/defense satellites.

Loading next visibility...
Identifier
57783, 2023-134N
Orbit
LEO
Last TLE update
6 hours ago
Origin
Manufacturer
SpaceX/Seattle
Mission
Operational Commercial Communications
Bus & Motor
STARLINK V2M, Unknown motor
Mass
730 kg wet, ~700 kg dry
Launch date (UTC)
2023-09-04 (2 years ago)
Launch vehicle
FALCON 9
Launch site
Air Force Eastern Test Range (AFETR)
Object type
Payload
Rocket body
Debris
Shape & HBR
Box + 2 Pan, 29 m
Radar Cross Section
33.884 m², Large (>1 m²)

Expand to show TLE details & history

TLE from 6 hours ago
0 STARLINK-30389
1 57783U 23134N   25151.10747693  .00000180  00000-0  28407-4 0  9998
2 57783  43.0039 292.9734 0001254 272.5860  87.4839 15.02535248 96727
Epoch: 2025-05-31T02:34Z
TLE epoch observation values (Epoch: 2025-05-31T02:34:46.006Z)
Latitude
-0.00002°
Longitude
5.42908°
Altitude
558.822 km
Speed
7.584 km/s
True Right ascension
19h 31m 53s
True Declination
0° 00' 00"
Sunlit
Object was in full shadow at epoch
Visualization orbit readout
Latitude
-37.94708°
Longitude
-119.64151°
Altitude
569.547 km
Speed
7.577 km/s
Apparent Right ascension
08h 47m 29s
Apparent Declination
-45° 41' 49"
Sunlit
Object is in daylight
Visualization observer readout
Local Sidereal Time
18:02:41
Azimuth
245.292° WSW
Elevation
-59.576°
Doppler factor
1
Orbital elements
Apogee altitude
561.875 km
Perigee altitude
560.135 km
Semi-major axis
6,939.142 km
Eccentricity
0.00013
Inclination
43.0039°
RAAN
292.9734°
Arg. of periapsis
272.586°
True anomaly
Unknown
Mean anomaly
87.4839°
Eccentric anomaly
Unknown
Mean motion
3.75478 °/min
Orbital period
95.88 mins
BSTAR
0.000028407
Loading maneuver chart data...
Loading SW <> Apogee altitude chart data...
Loading historical data...
Loading historical data...
Loading historical data...
Loading historical data...
Loading historical data...
Loading historical data...
Loading historical data...

STARLINK-30389 Visibility forecast

Observer location: undefined°, undefined°

Span
Click to sort rows by Start time (UTC) header in descending order
Start Az.
Max El. time (UTC)
Max El. Az.
Max El.
End time (UTC)
End Az.
7 mins2025-05-31 12:19:47.685Z204.044° SW2025-05-31 12:23:47.685Z133.461° SE24.088°2025-05-31 12:26:47.685Z88.277° E
7 mins2025-05-31 14:00:47.685Z253.294° W2025-05-31 14:03:47.685Z32.686° NE44.862°2025-05-31 14:07:47.685Z71.782° E
6 mins2025-05-31 15:41:47.685Z287.178° WNW2025-05-31 15:44:47.685Z13.26° NNE39.124°2025-05-31 15:47:47.685Z75.647° E
6 mins2025-05-31 17:22:47.685Z288.498° WNW2025-05-31 17:25:47.685Z103.713° ESE44.149°2025-05-31 17:28:47.685Z108.48° ESE
5 mins2025-05-31 19:03:47.685Z256.233° W2025-05-31 19:05:47.685Z215.816° SW23.664°2025-05-31 19:08:47.685Z162.331° S
|